Preview of NWS' New Version of Forecast
This preview is not operational and should not be used for support decisions.

Regional Weather Roundup (RWR)

Issued by Shreveport, LA (SHV)

                            
000
ASUS44 KSHV 170510
RWRSHV

WEATHER ROUNDUP FOR THE FOUR STATE AREA
NATIONAL WEATHER SERVICE SHREVEPORT LA
1100 PM CST SUN DEC 16 2018

NOTE:  "FAIR" INDICATES FEW OR NO CLOUDS BELOW 12000 FEET
WITH NO SIGNIFICANT WEATHER AND/OR OBSTRUCTIONS TO VISIBILITY.

!LAZ001-LAZ014-TXZ097-170600
SHREVEPORT...MONROE...TEXARKANA RADIOS
  
CITY           SKY/WX    TMP DP  RH WIND       PRES   REMARKS
SHREVEPORT     CLOUDY    52  50  93 CALM      30.25S                  
MONROE           N/A     48  47  96 CALM      30.27S                  
NATCHITOCHES     N/A     49  49 100 CALM      30.26F FOG              
TEXARKANA      MOCLDY    49  49 100 S6        30.24F                  
$$

!LAZ001-LAZ014-TXZ097-170600
OTHER LOCATIONS...
  
CITY           SKY/WX    TMP DP  RH WIND       PRES   REMARKS
DOWNTOWN SHV   CLOUDY    51  47  86 CALM      30.26R                  
BOSSIER CITY   MOCLDY    50  46  87 CALM      30.26S                  
RUSTON           N/A     50  49  95 CALM      30.29F                  
LITTLE ROCK    CLEAR     42  41  96 W3        30.26S                  
EL DORADO        N/A     45  45 100 CALM      30.26S                  
JACKSON          N/A     42  41  96 CALM      30.26F                  
NEW ORLEANS    MOCLDY    49  48  97 CALM      30.27F                  
HOUSTON        CLOUDY    51  50  96 CALM      30.29S                  
LUFKIN         CLOUDY    48  48 100 E3        30.26F                  
TYLER          CLOUDY    51  46  83 SW5       30.26R                  
DAL FT WORTH   CLOUDY    51  37  58 NW7       30.24S                  
$$


!TXZ136-TXZ165-170600
TYLER...LUFKIN RADIOS
  
CITY           SKY/WX    TMP DP  RH WIND       PRES   REMARKS
TYLER          CLOUDY    51  46  83 SW5       30.26R                  
GILMER         CLOUDY    48  47  94 CALM      30.26S                  
LONGVIEW       CLOUDY    50  49  96 CALM      30.25S                  
LUFKIN         CLOUDY    48  48 100 E3        30.26F                  
$$

!TXZ136-TXZ165-170600
OTHER LOCATIONS...
  
CITY           SKY/WX    TMP DP  RH WIND       PRES   REMARKS
NACOGDOCHES      N/A     47  47 100 CALM      30.27F FOG              
BEAUMONT         N/A     50  47  89 W3        30.28F                  
HOUSTON        CLOUDY    51  50  96 CALM      30.29S                  
COLLEGE STN    CLOUDY    51  45  79 CALM      30.28R                  
AUSTIN         CLOUDY    50  41  71 S3        30.28F                  
DAL FT WORTH   CLOUDY    51  37  58 NW7       30.24S                  
TEXARKANA      MOCLDY    49  49 100 S6        30.24F                  
SHREVEPORT     CLOUDY    52  50  93 CALM      30.25S                  
FORT POLK      CLOUDY    50  49  97 CALM      30.26S                  
LAKE CHARLES     N/A    N/A N/A N/A CALM      30.30R                  
$$